GW3759 Weather Reports


Display with metric or nautical units.
time (UTC)temp
F
wind
direction
speed
MPH
gust
MPH
rain 1hr
in
rain 24hr
in
rain mn
in
humidity
%
barometer
mb
20260903013015 75 344 0.0 3.0 0.00 0.02 0.02 91 1017.8
20260903011520 75 83 0.0 2.0 0.00 0.02 0.02 92 1017.9
20260903010030 75 117 0.0 2.0 0.00 0.02 0.02 92 1018.1
20260903004524 75 333 0.0 2.0 0.00 0.02 0.02 91 1017.7
20260903003016 75 333 0.0 5.0 0.00 0.02 0.02 91 1017.6
20260903001514 76 347 1.0 3.0 0.00 0.02 0.02 91 1017.6
20260903000018 76 344 2.0 4.0 0.00 0.02 0.02 90 1017.4
20260902234509 76 333 1.0 2.0 0.00 0.02 0.02 89 1017.5
20260902233007 76 333 0.0 2.0 0.00 0.02 0.02 88 1017.7
20260902231516 77 333 0.0 1.0 0.00 0.02 0.02 88 1018.0
20260902230020 77 333 0.0 1.0 0.00 0.02 0.02 87 1017.9
20260902224516 76 333 0.0 1.0 0.00 0.02 0.02 87 1018.0
20260902223013 76 333 0.0 0.0 0.00 0.02 0.02 88 1017.9
20260902221508 76 333 0.0 0.0 0.00 0.02 0.02 88 1018.2
20260902220026 77 333 0.0 3.0 0.02 0.02 0.02 88 1017.7
20260902214545 77 333 0.0 3.0 0.02 0.02 0.02 90 1017.6
20260902213027 77 315 1.0 3.0 0.02 0.02 0.02 89 1017.8
20260902211502 78 11 1.0 3.0 0.02 0.02 0.02 86 1018.2
20260902210010 80 298 0.0 3.0 0.00 0.00 0.00 82 1018.1
20260902204504 82 285 0.0 2.0 0.00 0.00 0.00 77 1018.1
20260902203005 84 89 0.0 8.0 0.00 0.00 0.00 72 1018.4
20260902201521 87 303 2.0 7.0 0.00 0.00 0.00 70 1017.7
20260902200006 89 20 2.0 11.0 0.00 0.00 0.00 65 1018.0
20260902194503 91 55 1.0 7.0 0.00 0.00 0.00 65 1017.9
20260902193005 91 9 2.0 10.0 0.00 0.00 0.00 62 1018.0
20260902191516 91 76 1.0 7.0 0.00 0.00 0.00 64 1017.3
20260902190012 91 80 2.0 10.0 0.00 0.00 0.00 65 1017.3
20260902184515 91 236 0.0 6.0 0.00 0.00 0.00 64 1017.9
20260902183009 90 332 4.0 6.0 0.00 0.00 0.00 63 1017.7
20260902181504 90 309 0.0 3.0 0.00 0.00 0.00 64 1017.6
20260902180006 89 80 0.0 7.0 0.00 0.00 0.00 66 1017.9
20260902174511 89 281 0.0 5.0 0.00 0.00 0.00 67 1018.2
20260902173021 88 192 1.0 3.0 0.00 0.00 0.00 69 1018.3
20260902171504 88 138 0.0 4.0 0.00 0.00 0.00 71 1018.3
20260902170005 87 171 2.0 4.0 0.00 0.00 0.00 68 1018.4
20260902164504 87 277 0.0 2.0 0.00 0.00 0.00 71 1018.5
20260902163005 86 186 0.0 2.0 0.00 0.00 0.00 72 1018.5
20260902161524 85 186 0.0 2.0 0.00 0.00 0.00 71 1018.6
20260902160009 85 170 1.0 4.0 0.00 0.00 0.00 72 1018.5
20260902154512 85 163 2.0 3.0 0.00 0.00 0.00 73 1018.5
20260902153028 84 166 1.0 3.0 0.00 0.00 0.00 74 1018.5
20260902151514 84 182 1.0 4.0 0.00 0.00 0.00 74 1018.7
20260902150009 84 155 0.0 4.0 0.00 0.00 0.00 74 1018.7
20260902144512 84 306 0.0 3.0 0.00 0.00 0.00 73 1018.6
20260902143010 83 305 0.0 2.0 0.00 0.00 0.00 75 1018.6
20260902141517 82 130 0.0 2.0 0.00 0.00 0.00 78 1018.5
20260902140019 81 169 0.0 2.0 0.00 0.00 0.00 80 1018.4
20260902134513 80 184 0.0 2.0 0.00 0.00 0.00 81 1018.3
20260902133008 80 153 1.0 2.0 0.00 0.00 0.00 82 1018.3
20260902131513 79 351 0.0 2.0 0.00 0.00 0.00 83 1018.2
20260902130022 78 350 0.0 1.0 0.00 0.00 0.00 85 1018.1
20260902124527 78 350 0.0 4.0 0.00 0.00 0.00 85 1018.2
20260902123022 77 324 0.0 3.0 0.00 0.00 0.00 86 1018.1
20260902121502 76 352 1.0 3.0 0.00 0.00 0.00 88 1018.2
20260902120005 76 165 0.0 2.0 0.00 0.00 0.00 91 1018.3
20260902114504 75 165 0.0 4.0 0.00 0.00 0.00 90 1018.2
20260902113004 74 338 0.0 1.0 0.00 0.00 0.00 91 1018.2
20260902111504 75 338 0.0 1.0 0.00 0.00 0.00 90 1018.2
20260902110005 75 338 0.0 0.0 0.00 0.00 0.00 90 1018.2
20260902104509 75 338 0.0 0.0 0.00 0.00 0.00 89 1018.0
20260902103004 75 338 0.0 2.0 0.00 0.00 0.00 89 1018.0
20260902101509 75 338 0.0 2.0 0.00 0.00 0.00 90 1017.8
20260902100012 76 338 0.0 2.0 0.00 0.00 0.00 89 1017.6
20260902094512 76 338 0.0 0.0 0.00 0.00 0.00 88 1017.5
20260902093006 77 338 0.0 2.0 0.00 0.00 0.00 87 1017.3
20260902091505 77 338 0.0 2.0 0.00 0.00 0.00 86 1017.3
20260902090013 77 338 0.0 2.0 0.00 0.00 0.00 86 1017.4
20260902084520 77 338 0.0 0.0 0.00 0.00 0.00 83 1017.4
20260902083015 77 338 0.0 0.0 0.00 0.00 0.00 85 1017.4
20260902081505 77 338 0.0 2.0 0.00 0.00 0.00 87 1017.4
20260902080008 77 345 0.0 3.0 0.00 0.00 0.00 87 1017.5
20260902074513 77 360 2.0 3.0 0.00 0.00 0.00 87 1017.6
20260902073024 77 307 0.0 6.0 0.00 0.00 0.00 88 1017.4
20260902071530 76 339 1.0 3.0 0.00 0.00 0.00 90 1017.2
20260902070007 76 274 0.0 2.0 0.00 0.00 0.00 91 1017.0
20260902064527 76 274 0.0 2.0 0.00 0.00 0.00 90 1016.9
20260902063013 77 180 0.0 2.0 0.00 0.00 0.00 91 1016.7
20260902061510 77 180 0.0 1.0 0.00 0.00 0.00 90 1016.7
20260902060004 77 180 0.0 0.0 0.00 0.00 0.00 90 1016.8
20260902054506 78 180 0.0 2.0 0.00 0.00 0.00 90 1016.8
20260902053006 78 148 0.0 2.0 0.00 0.00 0.00 91 1017.0
20260902051518 78 352 0.0 1.0 0.00 0.00 0.00 90 1017.1
20260902050007 78 352 0.0 2.0 0.00 0.00 0.00 91 1016.9
20260902044513 78 352 0.0 1.0 0.00 0.00 0.00 91 1017.1
20260902043013 78 352 0.0 2.0 0.00 0.00 0.00 92 1017.0
20260902041523 78 352 0.0 2.0 0.00 0.00 0.00 92 1016.8
20260902040007 78 352 0.0 1.0 0.00 0.00 0.00 92 1016.6
20260902034506 78 352 0.0 1.0 0.00 0.00 0.00 90 1016.4
20260902033011 78 352 1.0 2.0 0.00 0.00 0.00 90 1016.2
20260902031514 79 352 0.0 0.0 0.00 0.00 0.00 89 1016.2
20260902030012 79 352 0.0 2.0 0.00 0.00 0.00 88 1016.3
20260902024504 79 352 0.0 0.0 0.00 0.00 0.00 87 1016.2
20260902023003 80 352 0.0 2.0 0.00 0.00 0.00 88 1016.2
20260902021515 80 352 0.0 2.0 0.00 0.00 0.00 88 1016.2
20260902020044 80 352 1.0 3.0 0.00 0.00 0.00 88 1016.2
20260902014519 81 352 0.0 1.0 0.00 0.00 0.00 88 1015.9